Location: Newark
(45.5000°N, 11.4167°E)
Time: 10:30:31
(UTC+00:00)

Vanguard 2 - Pass Details

Date: 25 August 2019
Orbit: 554 x 2937 km, 32.9° (Epoch: 18 September)

Event Time Altitude Azimuth Distance (km) Brightness Sun altitude
Rises 16:38:02 0° 264° (W) 4,541 13.4 14.3°
Reaches altitude 10° 16:41:32 10° 250° (WSW) 3,918 12.7 13.7°
Maximum altitude 16:49:20 23° 203° (SSW) 3,671 11.4 12.3°
Drops below altitude 10° 16:59:42 10° 160° (SSE) 5,328 11.6 10.5°
Sets 17:05:43 0° 148° (SSE) 6,605 11.9 9.5°
